Погода в Тотурбийкала

Россия / Республика Дагестан     43°12′28″N   46°41′22″E
темп.,
°C
ветер,
м/с
пор.,
м/с
влажн.,
%
обл.,
%
осадки,
мм/ч
давл.,
гПа
погр.,
м
26 июня, вс
вс2600:00+20з2276100 0.0 100812
03:00+20зсз2382100 0.1 100742
06:00+21зсз4575100 0.0 1007223
09:00+25зсз3250100 0.0 1007884
12:00+28з4341100 0.0 10051376
15:00+31з5434100 0.0 10041883
18:00+28зюз454655 0.1 1004534
21:00+21зюз477997 1.4 1007108
27 июня, пн
пн2700:00+21з61182100 0.3 1007326
03:00+20з612830 0.3 1007337
06:00+22з712720 0.0 1009568
09:00+28зсз89480 0.0 10081115
12:00+32зсз77360 0.0 10081822
15:00+32ссз7643100 0.0 10071792
18:00+29з3550100 0.0 1008572
21:00+23сз2363100 0.0 101046
28 июня, вт
вт2800:00+21з4675100 0.0 1010132
03:00+19з4782100 0.0 1010144
06:00+22зсз58660 0.0 1010415
09:00+27сз67440 0.0 10101394
12:00+31ссз66300 0.0 10092080
15:00+32с762837 0.0 10092448
18:00+29ссв5529100 0.0 10101345
21:00+22ю11393 0.0 101311
29 июня, ср
ср2900:00+20юз22430 0.0 101212
03:00+19зюз2249100 0.0 101211
06:00+23сз1244100 0.0 1013123
09:00+28св232578 0.0 10131189
12:00+32вюв552114 0.0 10122173
15:00+32в963175 0.0 10112451
18:00+25в886050 0.0 1013946
21:00+20в698399 0.0 1014412
30 июня, чт
чт3000:00+19в5887100 0.0 1014281
03:00+18в4886100 0.0 1014340
06:00+21в686835 0.0 1014562
09:00+25в674432 0.0 10141170
12:00+28в76310 0.0 10131686
15:00+28в76305 0.0 10131778
18:00+24в653832 0.0 10141216
21:00+19вюв46575 0.0 1016118